Simultaneous Nadir Overpasses (SNOs) Predictions

Prediction of SNOs between AQUA and METOP-B Satellite Orbit:

Table of predicted SNOs for the next 14.0 days since TLE Epoch: 8/14/2020
Index Date (AQUA) Time (AQUA) Lat,Lon (AQUA) SZA (AQUA ) Date (METOP-B) Time (METOP-B) Lat,Lon (METOP-B) SZA (METOP-B ) Distance(km) Time Diff (sec)
1 08/14/2020 20:21:27 73.86,-131.16 59.89 08/14/2020 20:21:49 73.87,-131.22 59.90 2.28 22
2 08/17/2020 15:06:14 -73.81, 127.74 119.29 08/17/2020 15:05:31 -73.80, 127.70 119.29 1.62 43
3 08/17/2020 15:55:43 73.87, -64.75 60.78 08/17/2020 15:56:10 73.86, -64.84 60.78 2.98 27
4 08/20/2020 10:40:30 -73.82,-165.84 118.37 08/20/2020 10:39:51 -73.84,-165.80 118.34 2.70 39
5 08/20/2020 11:29:59 73.88, 1.66 61.71 08/20/2020 11:30:30 73.89, 1.66 61.72 1.30 31
6 08/23/2020 06:14:45 -73.84, -99.44 117.41 08/23/2020 06:14:11 -73.83, -99.41 117.41 1.00 34
7 08/23/2020 07:04:14 73.90, 68.05 62.67 08/23/2020 07:04:50 73.88, 68.04 62.65 2.55 36
8 08/26/2020 01:49:00 -73.80, -32.93 116.48 08/26/2020 01:48:32 -73.82, -33.03 116.46 3.71 28
9 08/26/2020 02:38:30 73.92, 134.44 63.66 08/26/2020 02:39:10 73.91, 134.53 63.64 3.14 40
